Location: Bruch
(44.2051°N, 0.4120°E)
Time: 05:02:40
(UTC+00:00)

Cosmos 2181 Rocket - Pass Details

Date: 29 November 2020
Orbit: 951 x 1015 km, 82.9° (Epoch: 24 January)

Event Time Altitude Azimuth Distance (km) Brightness Sun altitude
Rises 04:56:20 0° 350° (N) 3,683 6.9 -23.7°
Reaches altitude 10° 04:58:52 10° 349° (N) 2,722 6.1 -23.2°
Maximum altitude 05:05:05 77° 265° (W) 990 3.8 -22.1°
Drops below altitude 10° 05:11:11 10° 180° (S) 2,673 6.4 -21.0°
Sets 05:13:39 0° 179° (S) 3,612 7.1 -20.6°
